Regional Weather Roundup
Issued by NWS New Orleans/Baton Rouge, LA

Home | Current Version | Previous Version | Graphics & Text | Print | Product List | Glossary On
Versions: 1 2 3 4 5 6 7 8 9 10 11 12 13 14 15 16 17 18 19 20 21 22 23 24 25 26 27 28 29 30 31 32 33 34 35 36 37 38 39 40 41 42 43 44 45 46 47 48 49 50
275
ASUS44 KLIX 232210
RWRLIX
NEW ORLEANS REGIONAL WEATHER ROUNDUP
NATIONAL WEATHER SERVICE NEW ORLEANS LA
400 PM CST SUN NOV 23 2014

NOTE: "FAIR" INDICATES FEW OR NO CLOUDS BELOW 12,000 FEET WITH NO
      SIGNIFICANT WEATHER AND/OR OBSTRUCTIONS TO VISIBILITY.
      SKY/WX - SKY CONDITION AND SIGNIFICANT WEATHER.
      TMP - AIR TEMPERATURE.     DP    - DEWPOINT TEMPERATURE.
      RH  - RELATIVE HUMIDITY.   PRES  - PRESSURE.
      HI  - HEAT INDEX.          WCI   - WIND CHILL INDEX.

*  THESE STATIONS ARE NOT NWS OR FAA STATIONS AND ARE NOT UNDER
   NWS QUALITY CONTROL.

LAZ038-040-048-061>063-065>067-069-232300-
SOUTHEAST LOUISIANA

CITY           SKY/WX    TMP DP  RH WIND       PRES   REMARKS
N.O. AUDUBON     N/A     73  62  68 MISG        N/A
N.O. INTL ARPT MOSUNNY   75  57  53 SW13      29.65R
N.O. LAKEFRONT SUNNY     73  57  57 SW21G26   29.65R
N.O. DOWNTOWN*   N/A     73  59  60 S10G18    29.66S
SLIDELL        SUNNY     73  59  61 SW8       29.64R
BATON ROUGE    MOSUNNY   73  57  57 SW20G28   29.61R
BOOTHVILLE     SUNNY     69  66  90 S15       29.70R
BELLE CHASSE   MOSUNNY   75  60  59 SW16G24   29.66R
BOGALUSA*        N/A     74  58  56 SW16G26   29.64R
NEW ROADS*       N/A     73  57  56 SW16G22   29.60R
GONZALES*      MOCLDY    72  63  72 SW12      29.64R
HAMMOND*       SUNNY     73  57  56 SW15G23   29.65R
HOUMA*         MOSUNNY   73  64  73 SW6G17    29.66S
PORT FOURCHON* CLEAR     73  68  83 SW13G18   29.71S

$$

MSZ070-080>082-232300-
SOUTHERN MISSISSIPPI

CITY           SKY/WX    TMP DP  RH WIND       PRES   REMARKS
MCCOMB         MOSUNNY   72  57  59 SW14G25   29.59R
GULFPORT       CLEAR     67  61  81 S10G17    29.66R
BILOXI         CLEAR     65  61  86 SW16      29.67R
PASCAGOULA     CLEAR     67  61  81 SW9G17    29.68S
STENNIS ARPT*  MOSUNNY   72  57  60 SW12      29.66

$$

COASTAL OBSERVATIONS
LAKE AND NEARSHORE STATIONS

STATION/POSITION TIME  TEMP    WIND        PRES    WAVE
                       AIR SEA DIR/SP/G            HT/PER
                 (UTC) (F)     (DEG/KT/KT) (MB)    (FT/S)
PASCAGOULA       2200   65     200/ 14/ 17 1004.6
WAVELAND YACHT   2200   67     220/  9/ 17 1003.5
GRAND ISLE       2200   71 64  220/ 10/ 15 1005.7
SOUTHWEST PASS   2200   71 72              1006.3
NEW CANAL        2200   74 56  230/  9/ 14 1004.3
SHELL BEACH      2200   70 54  200/ 15/ 19 1004.3

OFFSHORE STATIONS

STATION/POSITION TIME  TEMP    WIND        PRES    WAVE
                       AIR SEA DIR/SP/G            HT/PER
                 (UTC) (F)     (DEG/KT/KT) (MB)    (FT/S)
64 S DAUPHIN ISL 2114   72 72  210/ 21/ 23 1007.3    9/ 7

$$




USA.gov is the U.S. government's official web portal to all federal, state and local government web resources and services.